| time (UTC) | temp C | wind direction | speed KPH | gust KPH | rain 1hr cm | rain 24hr cm | rain mn cm | humidity % | barometer mb |
| 20260509071740 | 12 | 202 | 0.0 | 0.0 | 0.00 | 0.00 | 0.00 | 93 | 1012.4 |
| 20260509071241 | 12 | 202 | 0.0 | 0.0 | 0.00 | 0.00 | 0.00 | 93 | 1012.3 |
| 20260509070729 | 12 | 202 | 0.0 | 0.0 | 0.00 | 0.00 | 0.00 | 93 | 1012.4 |
| 20260509070230 | 12 | 202 | 0.0 | 0.0 | 0.00 | 0.00 | 0.00 | 93 | 1012.3 |
| 20260509065734 | 12 | 202 | 0.0 | 0.0 | 0.00 | 0.00 | 0.00 | 93 | 1012.3 |
| 20260509065219 | 12 | 202 | 0.0 | 0.0 | 0.00 | 0.00 | 0.00 | 93 | 1012.4 |
| 20260509064707 | 12 | 202 | 0.0 | 0.0 | 0.00 | 0.00 | 0.00 | 93 | 1012.5 |
| 20260509064156 | 12 | 202 | 0.0 | 0.0 | 0.00 | 0.00 | 0.00 | 93 | 1012.6 |
| 20260509063638 | 12 | 202 | 0.0 | 0.0 | 0.00 | 0.00 | 0.00 | 93 | 1012.6 |
| 20260509063127 | 12 | 202 | 0.0 | 0.0 | 0.00 | 0.00 | 0.00 | 93 | 1012.6 |
| 20260509061328 | 12 | 202 | 0.0 | 0.0 | 0.00 | 0.00 | 0.00 | 93 | 1012.6 |
| 20260509060818 | 12 | 202 | 0.0 | 0.0 | 0.00 | 0.00 | 0.00 | 93 | 1012.6 |
| 20260509055704 | 12 | 202 | 0.0 | 0.0 | 0.00 | 0.00 | 0.00 | 93 | 1013.3 |
| 20260509055208 | 12 | 202 | 0.0 | 0.0 | 0.00 | 0.00 | 0.00 | 92 | 1013.4 |
| 20260509054652 | 12 | 202 | 0.0 | 0.0 | 0.00 | 0.00 | 0.00 | 92 | 1013.6 |
| 20260509054146 | 12 | 202 | 0.0 | 0.0 | 0.00 | 0.00 | 0.00 | 92 | 1013.7 |
| 20260509053631 | 12 | 202 | 0.0 | 0.0 | 0.00 | 0.00 | 0.00 | 92 | 1013.8 |
| 20260509053141 | 12 | 202 | 0.0 | 0.0 | 0.00 | 0.00 | 0.00 | 92 | 1013.8 |
| 20260509052651 | 12 | 202 | 0.0 | 0.0 | 0.00 | 0.00 | 0.00 | 92 | 1013.9 |
| 20260509052200 | 12 | 202 | 0.0 | 0.0 | 0.00 | 0.00 | 0.00 | 92 | 1014.0 |
| 20260509051702 | 12 | 202 | 0.0 | 0.0 | 0.00 | 0.00 | 0.00 | 92 | 1014.0 |
| 20260509050534 | 12 | 202 | 0.0 | 0.0 | 0.00 | 0.00 | 0.00 | 92 | 1013.7 |
| 20260509050040 | 12 | 202 | 0.0 | 0.0 | 0.00 | 0.00 | 0.00 | 92 | 1013.8 |
| 20260509044857 | 12 | 202 | 0.0 | 0.0 | 0.00 | 0.00 | 0.00 | 92 | 1013.6 |
| 20260509043719 | 13 | 202 | 0.0 | 0.0 | 0.00 | 0.00 | 0.00 | 92 | 1013.5 |
| 20260509042601 | 13 | 202 | 0.0 | 0.0 | 0.00 | 0.00 | 0.00 | 91 | 1013.7 |
| 20260509042047 | 13 | 202 | 0.0 | 0.0 | 0.00 | 0.00 | 0.00 | 92 | 1013.6 |
| 20260509041533 | 13 | 202 | 0.0 | 0.0 | 0.00 | 0.00 | 0.00 | 92 | 1013.7 |
| 20260509041016 | 13 | 202 | 0.0 | 0.0 | 0.00 | 0.00 | 0.00 | 92 | 1013.6 |
| 20260509040504 | 13 | 202 | 0.0 | 0.0 | 0.00 | 0.00 | 0.00 | 92 | 1013.6 |
| 20260509040013 | 13 | 202 | 0.0 | 0.0 | 0.00 | 0.00 | 0.00 | 92 | 1013.6 |
| 20260509035522 | 13 | 202 | 0.0 | 0.0 | 0.00 | 0.00 | 0.00 | 92 | 1013.7 |
| 20260509035020 | 13 | 202 | 0.0 | 0.0 | 0.00 | 0.00 | 0.00 | 92 | 1013.9 |
| 20260509034527 | 13 | 202 | 0.0 | 0.0 | 0.00 | 0.00 | 0.00 | 92 | 1014.0 |
| 20260509034024 | 13 | 202 | 0.0 | 0.0 | 0.00 | 0.00 | 0.00 | 91 | 1014.0 |
| 20260509033529 | 13 | 202 | 0.0 | 0.0 | 0.00 | 0.00 | 0.00 | 91 | 1014.1 |
| 20260509033036 | 13 | 202 | 0.0 | 0.0 | 0.00 | 0.00 | 0.00 | 91 | 1014.3 |
| 20260509032545 | 13 | 202 | 0.0 | 0.0 | 0.00 | 0.00 | 0.00 | 91 | 1014.5 |
| 20260509032041 | 13 | 202 | 0.0 | 0.0 | 0.00 | 0.00 | 0.00 | 91 | 1014.3 |
| 20260509031533 | 13 | 202 | 0.0 | 0.0 | 0.00 | 0.00 | 0.00 | 91 | 1014.4 |
| 20260509031021 | 13 | 202 | 0.0 | 0.0 | 0.00 | 0.00 | 0.00 | 90 | 1014.4 |
| 20260509030526 | 13 | 202 | 0.0 | 0.0 | 0.00 | 0.00 | 0.00 | 90 | 1014.5 |
| 20260509030015 | 13 | 202 | 0.0 | 0.0 | 0.00 | 0.00 | 0.00 | 91 | 1014.3 |
| 20260509025518 | 13 | 202 | 0.0 | 0.0 | 0.00 | 0.00 | 0.00 | 90 | 1014.3 |
| 20260509025027 | 14 | 202 | 0.0 | 0.0 | 0.00 | 0.00 | 0.00 | 90 | 1014.4 |
| 20260509023903 | 14 | 202 | 0.0 | 0.0 | 0.00 | 0.00 | 0.00 | 90 | 1014.3 |
| 20260509023408 | 14 | 202 | 0.0 | 0.0 | 0.00 | 0.00 | 0.00 | 90 | 1014.3 |
| 20260509022300 | 14 | 202 | 0.0 | 0.0 | 0.00 | 0.00 | 0.00 | 89 | 1014.4 |
| 20260509021142 | 14 | 202 | 0.0 | 0.0 | 0.00 | 0.00 | 0.00 | 89 | 1014.5 |
| 20260509020629 | 14 | 202 | 0.0 | 0.0 | 0.00 | 0.00 | 0.00 | 88 | 1014.5 |
| 20260509020132 | 15 | 202 | 0.0 | 0.0 | 0.00 | 0.00 | 0.00 | 88 | 1014.4 |
| 20260509015630 | 15 | 202 | 0.0 | 0.0 | 0.00 | 0.00 | 0.00 | 88 | 1014.4 |
| 20260509015121 | 15 | 202 | 0.0 | 0.0 | 0.00 | 0.00 | 0.00 | 88 | 1014.4 |
| 20260509014616 | 15 | 202 | 0.0 | 0.0 | 0.00 | 0.00 | 0.00 | 87 | 1014.4 |
| 20260509014116 | 15 | 202 | 0.0 | 0.0 | 0.00 | 0.00 | 0.00 | 87 | 1014.3 |
| 20260509013611 | 15 | 202 | 0.0 | 0.0 | 0.00 | 0.00 | 0.00 | 87 | 1014.1 |
| 20260509012433 | 15 | 202 | 0.0 | 0.0 | 0.00 | 0.00 | 0.00 | 87 | 1014.2 |
| 20260509011938 | 15 | 202 | 0.0 | 0.0 | 0.00 | 0.00 | 0.00 | 86 | 1014.2 |
| 20260509011420 | 15 | 202 | 0.0 | 0.0 | 0.00 | 0.00 | 0.00 | 86 | 1014.2 |
| 20260509010911 | 15 | 202 | 0.0 | 0.0 | 0.00 | 0.00 | 0.00 | 86 | 1014.2 |
| 20260509010406 | 15 | 202 | 0.0 | 0.0 | 0.00 | 0.00 | 0.00 | 85 | 1014.2 |
| 20260509005859 | 15 | 202 | 0.0 | 0.0 | 0.00 | 0.00 | 0.00 | 85 | 1014.4 |
| 20260509004714 | 16 | 202 | 0.0 | 0.0 | 0.00 | 0.00 | 0.00 | 84 | 1014.2 |
| 20260509004223 | 16 | 202 | 0.0 | 0.0 | 0.00 | 0.00 | 0.00 | 84 | 1014.2 |
| 20260509003104 | 16 | 202 | 0.0 | 0.0 | 0.00 | 0.00 | 0.00 | 83 | 1014.3 |
| 20260509002547 | 16 | 202 | 0.0 | 0.0 | 0.00 | 0.00 | 0.00 | 82 | 1014.2 |
| 20260509002038 | 16 | 202 | 0.0 | 0.0 | 0.00 | 0.00 | 0.00 | 83 | 1014.2 |
| 20260509000920 | 16 | 202 | 0.0 | 1.6 | 0.00 | 0.00 | 0.00 | 83 | 1014.3 |
| 20260508235808 | 17 | 202 | 0.0 | 0.0 | 0.00 | 0.00 | 0.00 | 81 | 1014.5 |
| 20260508235309 | 17 | 202 | 0.0 | 0.0 | 0.00 | 0.00 | 0.00 | 83 | 1014.3 |
| 20260508233536 | 17 | 202 | 0.0 | 0.0 | 0.00 | 0.00 | 0.00 | 84 | 1014.3 |
| 20260508233022 | 17 | 202 | 0.0 | 0.0 | 0.00 | 0.00 | 0.00 | 84 | 1014.1 |
| 20260508232515 | 17 | 202 | 0.0 | 0.0 | 0.00 | 0.00 | 0.00 | 84 | 1014.1 |
| 20260508230748 | 17 | 202 | 0.0 | 0.0 | 0.00 | 0.00 | 0.00 | 82 | 1014.1 |
| 20260508230255 | 17 | 202 | 0.0 | 0.0 | 0.00 | 0.00 | 0.00 | 81 | 1014.2 |
| 20260508225758 | 18 | 202 | 0.0 | 0.0 | 0.00 | 0.00 | 0.00 | 80 | 1014.1 |
| 20260508224632 | 18 | 202 | 0.0 | 0.0 | 0.00 | 0.00 | 0.00 | 80 | 1014.0 |
| 20260508222202 | 18 | 202 | 0.0 | 0.0 | 0.00 | 0.00 | 0.00 | 77 | 1014.1 |
| 20260508221654 | 18 | 202 | 0.0 | 0.0 | 0.00 | 0.00 | 0.00 | 77 | 1014.2 |
| 20260508221153 | 18 | 202 | 0.0 | 0.0 | 0.00 | 0.00 | 0.00 | 77 | 1014.4 |
| 20260508215339 | 18 | 202 | 0.0 | 0.0 | 0.00 | 0.00 | 0.00 | 76 | 1014.3 |
| 20260508214843 | 18 | 202 | 0.0 | 0.0 | 0.00 | 0.00 | 0.00 | 73 | 1014.2 |
| 20260508214328 | 18 | 202 | 0.0 | 0.0 | 0.00 | 0.00 | 0.00 | 73 | 1014.1 |
| 20260508213819 | 18 | 202 | 0.0 | 0.0 | 0.00 | 0.00 | 0.00 | 75 | 1014.3 |
| 20260508213304 | 18 | 202 | 0.0 | 0.0 | 0.00 | 0.00 | 0.00 | 74 | 1014.4 |
| 20260508212747 | 18 | 202 | 0.0 | 0.0 | 0.00 | 0.00 | 0.00 | 72 | 1014.4 |
| 20260508212254 | 19 | 202 | 0.0 | 0.0 | 0.00 | 0.00 | 0.00 | 72 | 1014.3 |
| 20260508211748 | 19 | 202 | 0.0 | 0.0 | 0.00 | 0.00 | 0.00 | 73 | 1014.2 |
| 20260508210559 | 19 | 202 | 0.0 | 0.0 | 0.00 | 0.00 | 0.00 | 71 | 1014.5 |
| 20260508210044 | 19 | 202 | 0.0 | 1.6 | 0.00 | 0.00 | 0.00 | 71 | 1014.4 |
| 20260508205525 | 19 | 202 | 0.0 | 0.0 | 0.00 | 0.00 | 0.00 | 72 | 1014.4 |
| 20260508205008 | 20 | 202 | 0.0 | 0.0 | 0.00 | 0.00 | 0.00 | 72 | 1014.3 |
| 20260508204518 | 20 | 202 | 0.0 | 0.0 | 0.00 | 0.00 | 0.00 | 73 | 1014.3 |
| 20260508204009 | 20 | 202 | 0.0 | 0.0 | 0.00 | 0.00 | 0.00 | 71 | 1014.5 |
| 20260508202903 | 20 | 202 | 0.0 | 0.0 | 0.00 | 0.00 | 0.00 | 70 | 1014.5 |
| 20260508202353 | 20 | 202 | 0.0 | 0.0 | 0.00 | 0.00 | 0.00 | 71 | 1014.5 |
| 20260508201839 | 20 | 203 | 0.0 | 0.0 | 0.00 | 0.00 | 0.00 | 67 | 1014.6 |
| 20260508200042 | 20 | 202 | 0.0 | 0.0 | 0.00 | 0.00 | 0.00 | 66 | 1014.6 |
| 20260508195537 | 20 | 202 | 0.0 | 0.0 | 0.00 | 0.00 | 0.00 | 67 | 1014.6 |
| 20260508195029 | 20 | 202 | 0.0 | 0.0 | 0.00 | 0.00 | 0.00 | 66 | 1014.5 |
| 20260508194514 | 20 | 202 | 0.0 | 0.0 | 0.00 | 0.00 | 0.00 | 65 | 1014.5 |
| 20260508194007 | 20 | 202 | 0.0 | 0.0 | 0.00 | 0.00 | 0.00 | 66 | 1014.5 |
| 20260508193513 | 21 | 202 | 0.0 | 1.6 | 0.00 | 0.00 | 0.00 | 65 | 1014.7 |
| 20260508193015 | 21 | 204 | 0.0 | 0.0 | 0.00 | 0.00 | 0.00 | 64 | 1014.8 |
| 20260508192505 | 21 | 204 | 0.0 | 0.0 | 0.00 | 0.00 | 0.00 | 62 | 1015.0 |
| 20260508191959 | 21 | 204 | 0.0 | 0.0 | 0.00 | 0.00 | 0.00 | 57 | 1015.1 |
| 20260508191452 | 22 | 204 | 0.0 | 4.8 | 0.00 | 0.00 | 0.00 | 55 | 1015.2 |
| 20260508190951 | 22 | 204 | 0.0 | 4.8 | 0.00 | 0.00 | 0.00 | 47 | 1015.4 |
| 20260508190500 | 22 | 204 | 0.0 | 4.8 | 0.00 | 0.00 | 0.00 | 51 | 1015.4 |
| 20260508190010 | 22 | 199 | 1.6 | 4.8 | 0.00 | 0.00 | 0.00 | 49 | 1015.6 |
| 20260508185503 | 22 | 183 | 0.0 | 4.8 | 0.00 | 0.00 | 0.00 | 50 | 1015.7 |
| 20260508184952 | 22 | 201 | 0.0 | 8.0 | 0.00 | 0.00 | 0.00 | 50 | 1015.5 |
| 20260508184437 | 22 | 190 | 1.6 | 8.0 | 0.00 | 0.00 | 0.00 | 45 | 1015.5 |
| 20260508183921 | 22 | 190 | 1.6 | 8.0 | 0.00 | 0.00 | 0.00 | 51 | 1015.8 |
| 20260508183402 | 22 | 218 | 0.0 | 8.0 | 0.00 | 0.00 | 0.00 | 47 | 1016.0 |
| 20260508182910 | 22 | 216 | 0.0 | 3.2 | 0.00 | 0.00 | 0.00 | 46 | 1016.0 |
| 20260508182356 | 22 | 210 | 0.0 | 6.4 | 0.00 | 0.00 | 0.00 | 45 | 1015.8 |
| 20260508181841 | 22 | 210 | 1.6 | 6.4 | 0.00 | 0.00 | 0.00 | 46 | 1016.0 |
| 20260508181338 | 22 | 214 | 1.6 | 6.4 | 0.00 | 0.00 | 0.00 | 48 | 1015.9 |
| 20260508180828 | 22 | 217 | 0.0 | 6.4 | 0.00 | 0.00 | 0.00 | 50 | 1016.2 |
| 20260508180338 | 22 | 147 | 0.0 | 0.0 | 0.00 | 0.00 | 0.00 | 47 | 1016.4 |
| 20260508175838 | 22 | 145 | 0.0 | 0.0 | 0.00 | 0.00 | 0.00 | 46 | 1016.3 |
| 20260508175330 | 22 | 191 | 0.0 | 1.6 | 0.00 | 0.00 | 0.00 | 46 | 1016.4 |
| 20260508174822 | 22 | 190 | 0.0 | 1.6 | 0.00 | 0.00 | 0.00 | 49 | 1016.3 |
| 20260508174332 | 22 | 280 | 0.0 | 6.4 | 0.00 | 0.00 | 0.00 | 44 | 1016.3 |
| 20260508173832 | 22 | 280 | 0.0 | 3.2 | 0.00 | 0.00 | 0.00 | 49 | 1016.5 |
| 20260508173335 | 22 | 280 | 0.0 | 3.2 | 0.00 | 0.00 | 0.00 | 44 | 1016.6 |
| 20260508172819 | 22 | 243 | 1.6 | 1.6 | 0.00 | 0.00 | 0.00 | 50 | 1016.4 |
| 20260508171700 | 22 | 191 | 0.0 | 6.4 | 0.00 | 0.00 | 0.00 | 49 | 1016.8 |
| 20260508170546 | 21 | 219 | 1.6 | 6.4 | 0.00 | 0.00 | 0.00 | 46 | 1017.0 |
| 20260508170053 | 21 | 210 | 1.6 | 6.4 | 0.00 | 0.00 | 0.00 | 48 | 1017.0 |
| 20260508164920 | 21 | 220 | 1.6 | 9.7 | 0.00 | 0.00 | 0.00 | 53 | 1017.2 |
| 20260508164411 | 20 | 297 | 3.2 | 9.7 | 0.00 | 0.00 | 0.00 | 46 | 1017.2 |
| 20260508163854 | 20 | 186 | 3.2 | 9.7 | 0.00 | 0.00 | 0.00 | 48 | 1017.3 |
| 20260508163342 | 20 | 191 | 1.6 | 8.0 | 0.00 | 0.00 | 0.00 | 48 | 1017.4 |
| 20260508161559 | 19 | 198 | 0.0 | 4.8 | 0.00 | 0.00 | 0.00 | 55 | 1018.0 |
| 20260508161054 | 19 | 34 | 0.0 | 4.8 | 0.00 | 0.00 | 0.00 | 53 | 1018.1 |
| 20260508160600 | 19 | 197 | 0.0 | 9.7 | 0.00 | 0.00 | 0.00 | 55 | 1018.2 |
| 20260508160109 | 18 | 277 | 0.0 | 9.7 | 0.00 | 0.00 | 0.00 | 56 | 1018.3 |
| 20260508155618 | 18 | 206 | 0.0 | 8.0 | 0.00 | 0.00 | 0.00 | 56 | 1018.4 |
| 20260508155113 | 18 | 186 | 3.2 | 8.0 | 0.00 | 0.00 | 0.00 | 56 | 1018.4 |
| 20260508154558 | 18 | 212 | 3.2 | 11.3 | 0.00 | 0.00 | 0.00 | 57 | 1018.4 |
| 20260508154101 | 18 | 198 | 3.2 | 14.5 | 0.00 | 0.00 | 0.00 | 63 | 1018.3 |
| 20260508153557 | 18 | 200 | 1.6 | 14.5 | 0.00 | 0.00 | 0.00 | 62 | 1018.4 |
| 20260508153049 | 17 | 216 | 1.6 | 14.5 | 0.00 | 0.00 | 0.00 | 63 | 1018.6 |
| 20260508152555 | 17 | 188 | 1.6 | 14.5 | 0.00 | 0.00 | 0.00 | 65 | 1018.7 |
| 20260508150200 | 16 | 243 | 0.0 | 1.6 | 0.00 | 0.00 | 0.00 | 72 | 1018.7 |
| 20260508145656 | 15 | 359 | 0.0 | 4.8 | 0.00 | 0.00 | 0.00 | 73 | 1018.8 |
| 20260508145148 | 15 | 189 | 0.0 | 4.8 | 0.00 | 0.00 | 0.00 | 73 | 1018.7 |
| 20260508144658 | 15 | 239 | 0.0 | 1.6 | 0.00 | 0.00 | 0.00 | 87 | 1018.8 |
| 20260508144145 | 15 | 239 | 0.0 | 3.2 | 0.00 | 0.00 | 0.00 | 81 | 1018.8 |
| 20260508143631 | 14 | 242 | 0.0 | 3.2 | 0.00 | 0.00 | 0.00 | 88 | 1018.8 |
| 20260508143137 | 14 | 284 | 0.0 | 0.0 | 0.00 | 0.00 | 0.00 | 82 | 1018.9 |
| 20260508142623 | 13 | 280 | 0.0 | 1.6 | 0.00 | 0.00 | 0.00 | 83 | 1019.0 |
| 20260508141437 | 13 | 285 | 0.0 | 0.0 | 0.00 | 0.00 | 0.00 | 92 | 1018.9 |
| 20260508140935 | 13 | 285 | 0.0 | 0.0 | 0.00 | 0.00 | 0.00 | 92 | 1018.9 |
| 20260508135803 | 13 | 285 | 0.0 | 0.0 | 0.00 | 0.00 | 0.00 | 92 | 1018.6 |
| 20260508135255 | 13 | 285 | 0.0 | 0.0 | 0.00 | 0.00 | 0.00 | 94 | 1018.7 |
| 20260508134801 | 12 | 285 | 0.0 | 0.0 | 0.00 | 0.00 | 0.00 | 94 | 1018.7 |
| 20260508134255 | 12 | 285 | 0.0 | 0.0 | 0.00 | 0.00 | 0.00 | 94 | 1018.8 |
| 20260508133801 | 12 | 285 | 0.0 | 0.0 | 0.00 | 0.00 | 0.00 | 94 | 1018.8 |
| 20260508132638 | 12 | 285 | 0.0 | 0.0 | 0.00 | 0.00 | 0.00 | 95 | 1018.8 |
| 20260508132132 | 12 | 285 | 0.0 | 0.0 | 0.00 | 0.00 | 0.00 | 95 | 1018.9 |
| 20260508131624 | 12 | 285 | 0.0 | 0.0 | 0.00 | 0.00 | 0.00 | 95 | 1018.9 |
| 20260508130442 | 11 | 285 | 0.0 | 0.0 | 0.00 | 0.00 | 0.00 | 95 | 1019.0 |
| 20260508125925 | 11 | 285 | 0.0 | 0.0 | 0.00 | 0.00 | 0.00 | 95 | 1019.0 |
| 20260508125408 | 11 | 285 | 0.0 | 0.0 | 0.00 | 0.00 | 0.00 | 95 | 1019.0 |
| 20260508124850 | 11 | 285 | 0.0 | 0.0 | 0.00 | 0.00 | 0.00 | 95 | 1018.9 |
| 20260508124357 | 11 | 285 | 0.0 | 0.0 | 0.00 | 0.00 | 0.00 | 95 | 1018.9 |
| 20260508123857 | 10 | 285 | 0.0 | 0.0 | 0.00 | 0.00 | 0.00 | 95 | 1018.9 |
| 20260508122740 | 10 | 285 | 0.0 | 0.0 | 0.00 | 0.00 | 0.00 | 95 | 1018.8 |
| 20260508122222 | 10 | 285 | 0.0 | 0.0 | 0.00 | 0.00 | 0.00 | 95 | 1018.7 |
| 20260508121707 | 10 | 285 | 0.0 | 0.0 | 0.00 | 0.00 | 0.00 | 95 | 1018.7 |
| 20260508120517 | 10 | 285 | 0.0 | 0.0 | 0.00 | 0.00 | 0.00 | 95 | 1018.6 |
| 20260508120007 | 9 | 285 | 0.0 | 0.0 | 0.00 | 0.00 | 0.00 | 95 | 1018.5 |
| 20260508115453 | 9 | 285 | 0.0 | 0.0 | 0.00 | 0.00 | 0.00 | 95 | 1018.3 |
| 20260508114952 | 9 | 285 | 0.0 | 0.0 | 0.00 | 0.00 | 0.00 | 95 | 1018.3 |
| 20260508114457 | 9 | 285 | 0.0 | 0.0 | 0.00 | 0.08 | 0.00 | 95 | 1018.1 |
| 20260508113944 | 9 | 285 | 0.0 | 0.0 | 0.00 | 0.13 | 0.00 | 95 | 1018.0 |
| 20260508113435 | 9 | 285 | 0.0 | 0.0 | 0.00 | 0.20 | 0.00 | 95 | 1017.9 |
| 20260508112251 | 8 | 285 | 0.0 | 0.0 | 0.00 | 0.25 | 0.00 | 94 | 1017.6 |
| 20260508111738 | 8 | 285 | 0.0 | 0.0 | 0.00 | 0.25 | 0.00 | 94 | 1017.5 |
| 20260508111219 | 8 | 285 | 0.0 | 0.0 | 0.00 | 0.25 | 0.00 | 94 | 1017.4 |
| 20260508110725 | 8 | 285 | 0.0 | 0.0 | 0.00 | 0.25 | 0.00 | 94 | 1017.3 |
| 20260508110212 | 8 | 285 | 0.0 | 0.0 | 0.00 | 0.30 | 0.00 | 94 | 1017.3 |
| 20260508105715 | 8 | 285 | 0.0 | 0.0 | 0.00 | 0.33 | 0.00 | 94 | 1017.2 |
| 20260508105219 | 8 | 285 | 0.0 | 0.0 | 0.00 | 0.38 | 0.00 | 94 | 1017.1 |
| 20260508104701 | 8 | 285 | 0.0 | 0.0 | 0.00 | 0.41 | 0.00 | 94 | 1017.1 |
| 20260508104152 | 8 | 285 | 0.0 | 0.0 | 0.00 | 0.46 | 0.00 | 94 | 1017.0 |
| 20260508103639 | 8 | 285 | 0.0 | 0.0 | 0.00 | 0.46 | 0.00 | 94 | 1017.0 |
| 20260508103147 | 8 | 285 | 0.0 | 0.0 | 0.00 | 0.51 | 0.00 | 94 | 1016.9 |
| 20260508102638 | 8 | 285 | 0.0 | 0.0 | 0.00 | 0.51 | 0.00 | 94 | 1016.7 |
| 20260508102121 | 8 | 285 | 0.0 | 0.0 | 0.00 | 0.53 | 0.00 | 94 | 1016.7 |
| 20260508101624 | 8 | 285 | 0.0 | 0.0 | 0.00 | 0.58 | 0.00 | 94 | 1016.6 |
| 20260508101109 | 8 | 285 | 0.0 | 0.0 | 0.00 | 0.66 | 0.00 | 93 | 1016.5 |
| 20260508100612 | 9 | 285 | 0.0 | 0.0 | 0.00 | 0.66 | 0.00 | 93 | 1016.4 |
| 20260508100103 | 9 | 285 | 0.0 | 0.0 | 0.00 | 0.71 | 0.00 | 93 | 1016.3 |
| 20260508094304 | 9 | 285 | 0.0 | 0.0 | 0.00 | 0.84 | 0.00 | 94 | 1016.0 |
| 20260508093802 | 9 | 285 | 0.0 | 0.0 | 0.00 | 0.84 | 0.00 | 94 | 1016.0 |
| 20260508093300 | 9 | 285 | 0.0 | 0.0 | 0.00 | 0.84 | 0.00 | 93 | 1015.9 |
| 20260508092752 | 9 | 285 | 0.0 | 0.0 | 0.00 | 0.89 | 0.00 | 93 | 1016.0 |
| 20260508092237 | 9 | 285 | 0.0 | 0.0 | 0.00 | 0.89 | 0.00 | 93 | 1015.9 |
| 20260508091720 | 9 | 285 | 0.0 | 0.0 | 0.00 | 0.89 | 0.00 | 93 | 1015.9 |
| 20260508090615 | 10 | 285 | 0.0 | 0.0 | 0.00 | 0.89 | 0.00 | 93 | 1015.9 |
| 20260508090100 | 10 | 285 | 0.0 | 0.0 | 0.00 | 0.89 | 0.00 | 93 | 1015.9 |
| 20260508085550 | 10 | 285 | 0.0 | 0.0 | 0.00 | 0.89 | 0.00 | 93 | 1015.9 |
| 20260508085041 | 10 | 285 | 0.0 | 0.0 | 0.00 | 0.89 | 0.00 | 93 | 1015.8 |
| 20260508083912 | 10 | 285 | 0.0 | 0.0 | 0.00 | 0.89 | 0.00 | 93 | 1015.8 |
| 20260508083355 | 10 | 285 | 0.0 | 0.0 | 0.00 | 0.89 | 0.00 | 93 | 1015.6 |
| 20260508082849 | 10 | 285 | 0.0 | 0.0 | 0.00 | 0.89 | 0.00 | 93 | 1015.6 |
| 20260508082347 | 10 | 285 | 0.0 | 0.0 | 0.00 | 0.89 | 0.00 | 93 | 1015.8 |
| 20260508081831 | 10 | 285 | 0.0 | 0.0 | 0.00 | 0.91 | 0.00 | 93 | 1015.8 |
| 20260508081338 | 10 | 285 | 0.0 | 0.0 | 0.00 | 0.97 | 0.00 | 93 | 1015.7 |
| 20260508080826 | 10 | 285 | 0.0 | 0.0 | 0.00 | 0.97 | 0.00 | 93 | 1015.8 |
| 20260508080323 | 10 | 285 | 0.0 | 0.0 | 0.00 | 0.97 | 0.00 | 93 | 1015.7 |
| 20260508075810 | 10 | 285 | 0.0 | 0.0 | 0.00 | 0.97 | 0.00 | 93 | 1015.6 |
| 20260508075309 | 10 | 285 | 0.0 | 0.0 | 0.00 | 0.97 | 0.00 | 93 | 1015.7 |
| 20260508074804 | 10 | 285 | 0.0 | 0.0 | 0.00 | 0.97 | 0.00 | 93 | 1015.7 |
| 20260508074257 | 10 | 285 | 0.0 | 0.0 | 0.00 | 0.97 | 0.00 | 93 | 1015.7 |
| 20260508073755 | 10 | 285 | 0.0 | 0.0 | 0.00 | 0.97 | 0.00 | 93 | 1015.7 |
| 20260508073303 | 10 | 285 | 0.0 | 0.0 | 0.00 | 0.97 | 0.00 | 93 | 1015.8 |